Afton Municipal Airport, WY

4:15 AM MST on December 13, 2019 (GMT -0700)
Afton Municipal

Weather History for KAFO - October, 2019

Change the Weather History Date:

Tuesday, October 1, 2019

  Actual Average Record
Temperature  
Mean Temperature 38 °F -  
Max Temperature 50 °F 67 °F 77 °F (2015)
Min Temperature 26 °F 29 °F 28 °F (2018)
Degree Days  
Heating Degree Days 27    
Moisture  
Dew Point 28 °F    
Average Humidity 75    
Maximum Humidity 100    
Minimum Humidity 35    
Precipitation  
Precipitation 0.00 in - - ()
Sea Level Pressure  
Sea Level Pressure 29.97 in    
Wind  
Wind Speed 3 mph ()    
Max Wind Speed 12 mph    
Max Gust Speed -    
Visibility 10.0 miles    
Events Rain    
Averages and records for this station are not official NWS values.
T = Trace of Precipitation, MM = Missing Value Source: Averaged Metar Reports

Daily Weather History Graph

Daily Weather History Graph

Search for Another Location

Airport or City:

Astronomy

Oct. 01, 2019 Rise Set
Actual Time 7:20 AM MDT 7:05 PM MDT
Civil Twilight 6:52 AM MDT 7:33 PM MDT
Nautical Twilight 6:19 AM MDT 8:06 PM MDT
Astronomical Twilight 5:46 AM MDT 8:39 PM MDT
Moon 10:45 AM MDT (10/1) 9:16 PM MDT (10/1)
Length of Visible Light 12h 40m
Length of Day
11h 44m
Waxing Crescent, 12% of the Moon is Illuminated
Oct 1
Waxing Crescent
Oct 5
First Quarter
Oct 13
Full
Oct 21
Last Quarter
Oct 27
New

Hourly Weather History & Observations

Time (MDT) Temp. Windchill Dew Point Humidity Pressure Visibility Wind Dir Wind Speed Gust Speed Precip Events Conditions
12:15 AM 32.0 °F 28.7 °F 28.4 °F 87% 29.97 in 10.0 mi NE 3.5 mph - N/A   Scattered Clouds
12:35 AM 28.4 °F 24.6 °F 26.6 °F 93% 29.97 in 10.0 mi SW 3.5 mph - N/A   Scattered Clouds
1:15 AM 28.4 °F 24.6 °F 26.6 °F 93% 29.97 in 10.0 mi SE 3.5 mph - N/A   Clear
1:35 AM 28.4 °F 24.6 °F 26.6 °F 93% 29.97 in 10.0 mi South 3.5 mph - N/A   Clear
1:55 AM 26.6 °F 21.2 °F 26.6 °F 100% 29.97 in 10.0 mi SSE 4.6 mph - N/A   Scattered Clouds
2:15 AM 28.4 °F - 26.6 °F 93% 29.97 in 10.0 mi Calm Calm - N/A   Overcast
2:35 AM 28.4 °F 23.3 °F 26.6 °F 93% 29.97 in 10.0 mi South 4.6 mph - N/A   Overcast
2:55 AM 30.2 °F 25.4 °F 28.4 °F 93% 29.97 in 10.0 mi SSW 4.6 mph - N/A   Overcast
3:15 AM 28.4 °F 24.6 °F 28.4 °F 100% 29.97 in 10.0 mi SSE 3.5 mph - N/A   Overcast
3:35 AM 30.2 °F - 28.4 °F 93% 29.97 in 10.0 mi Calm Calm - N/A   Overcast
3:55 AM 30.2 °F - 28.4 °F 93% 29.97 in 10.0 mi Calm Calm - N/A   Overcast
4:15 AM 28.4 °F 23.3 °F 26.6 °F 93% 29.97 in 10.0 mi WSW 4.6 mph - N/A   Overcast
4:35 AM 26.6 °F - 26.6 °F 100% 29.97 in 10.0 mi Calm Calm - N/A   Overcast
4:55 AM 28.4 °F - 26.6 °F 93% 29.97 in 10.0 mi Calm Calm - N/A   Overcast
5:15 AM 28.4 °F 24.6 °F 26.6 °F 93% 29.97 in 10.0 mi SW 3.5 mph - N/A   Overcast
5:35 AM 28.4 °F - 28.4 °F 100% 29.98 in 10.0 mi Calm Calm - N/A   Overcast
5:55 AM 28.4 °F - 28.4 °F 100% 29.97 in 10.0 mi Calm Calm - N/A   Overcast
6:35 AM 28.4 °F - 28.4 °F 100% 29.97 in 10.0 mi Calm Calm - N/A   Overcast
6:55 AM 28.4 °F - 26.6 °F 93% 29.97 in 10.0 mi Calm Calm - N/A   Overcast
7:15 AM 28.4 °F - 26.6 °F 93% 29.98 in 10.0 mi Calm Calm - N/A   Overcast
7:35 AM 28.4 °F - 26.6 °F 93% 29.98 in 10.0 mi Calm Calm - N/A   Mostly Cloudy
7:55 AM 28.4 °F - 26.6 °F 93% 29.98 in 10.0 mi Calm Calm - N/A   Mostly Cloudy
8:15 AM 28.4 °F - 26.6 °F 93% 29.97 in 10.0 mi Calm Calm - N/A   Scattered Clouds
8:35 AM 30.2 °F - 26.6 °F 86% 29.98 in 10.0 mi Calm Calm - N/A   Scattered Clouds
8:55 AM 32.0 °F - 28.4 °F 87% 29.98 in 10.0 mi Calm Calm - N/A   Scattered Clouds
9:15 AM 33.8 °F - 28.4 °F 81% 29.98 in 10.0 mi Calm Calm - N/A   Mostly Cloudy
9:55 AM 35.6 °F - 30.2 °F 81% 29.98 in 10.0 mi Calm Calm - N/A   Overcast
10:15 AM 35.6 °F 32.8 °F 30.2 °F 81% 29.98 in 10.0 mi North 3.5 mph - N/A   Mostly Cloudy
10:30 AM 37.4 °F - 32.0 °F 81% 29.97 in 10.0 mi Calm Calm - N/A   Scattered Clouds
10:55 AM 41.0 °F - 32.0 °F 70% 29.97 in 10.0 mi Calm Calm - N/A   Scattered Clouds
11:15 AM 41.0 °F - 32.0 °F 70% 29.97 in 10.0 mi Calm Calm - N/A   Clear
11:35 AM 41.0 °F - 30.2 °F 65% 29.96 in 10.0 mi Calm Calm - N/A   Clear
11:55 AM 44.6 °F 43.1 °F 32.0 °F 61% 29.96 in 10.0 mi NNW 3.5 mph - N/A   Clear
12:15 PM 44.6 °F 42.2 °F 30.2 °F 57% 29.95 in 10.0 mi NNW 4.6 mph - N/A   Clear
12:35 PM 46.4 °F 43.5 °F 23.0 °F 40% 29.95 in 10.0 mi NNW 5.8 mph - N/A   Clear
12:55 PM 46.4 °F 43.5 °F 23.0 °F 40% 29.95 in 10.0 mi North 5.8 mph - N/A   Clear
1:15 PM 48.2 °F - 23.0 °F 37% 29.94 in 10.0 mi Calm Calm - N/A   Clear
1:35 PM 48.2 °F - 23.0 °F 37% 29.94 in 10.0 mi Calm Calm - N/A   Clear
1:55 PM 50.0 °F - 23.0 °F 35% 29.93 in 10.0 mi Calm Calm - N/A   Clear
2:15 PM 50.0 °F - 23.0 °F 35% 29.92 in 10.0 mi NW 4.6 mph - N/A   Clear
2:35 PM 48.2 °F - 24.8 °F 40% 29.92 in 10.0 mi WNW 6.9 mph - N/A   Clear
2:55 PM 50.0 °F - 26.6 °F 40% 29.92 in 10.0 mi WNW 8.1 mph - N/A   Scattered Clouds
3:15 PM 50.0 °F - 26.6 °F 40% 29.92 in 10.0 mi NW 11.5 mph - N/A   Mostly Cloudy
3:35 PM 48.2 °F - 26.6 °F 43% 29.92 in 10.0 mi NNW 9.2 mph - N/A   Overcast
3:55 PM 48.2 °F - 26.6 °F 43% 29.92 in 10.0 mi NNW 6.9 mph - N/A   Overcast
4:15 PM 48.2 °F - 26.6 °F 43% 29.93 in 10.0 mi Calm Calm - N/A   Overcast
4:35 PM 46.4 °F 42.4 °F 26.6 °F 46% 29.93 in 10.0 mi West 8.1 mph - N/A   Overcast
4:55 PM 46.4 °F 45.2 °F 28.4 °F 50% 29.93 in 10.0 mi North 3.5 mph - N/A   Overcast
5:15 PM 44.6 °F 40.2 °F 30.2 °F 57% 29.93 in 10.0 mi NNE 8.1 mph - N/A   Overcast
5:35 PM 44.6 °F 42.2 °F 30.2 °F 57% 29.94 in 10.0 mi NNE 4.6 mph - N/A   Overcast
5:55 PM 44.6 °F 40.7 °F 30.2 °F 57% 29.94 in 10.0 mi NNE 6.9 mph - N/A Rain Light Rain
6:15 PM 42.8 °F 39.3 °F 28.4 °F 57% 29.94 in 10.0 mi ENE 5.8 mph - N/A   Mostly Cloudy
6:35 PM 42.8 °F 38.6 °F 30.2 °F 61% 29.95 in 10.0 mi ENE 6.9 mph - N/A   Clear
6:55 PM 41.0 °F 36.4 °F 30.2 °F 65% 29.96 in 10.0 mi NE 6.9 mph - N/A   Clear
7:15 PM 41.0 °F 39.0 °F 30.2 °F 65% 29.96 in 10.0 mi ENE 3.5 mph - N/A   Clear
7:35 PM 37.4 °F - 30.2 °F 75% 29.97 in 10.0 mi North - - N/A   Scattered Clouds
7:55 PM 37.4 °F 33.8 °F 32.0 °F 81% 29.98 in 10.0 mi North 4.6 mph - N/A   Mostly Cloudy
8:15 PM 39.2 °F 33.0 °F 32.0 °F 75% 29.98 in 10.0 mi NNW 9.2 mph - N/A   Overcast
8:35 PM 37.4 °F 31.4 °F 30.2 °F 75% 29.99 in 10.0 mi NNW 8.1 mph - N/A   Overcast
8:55 PM 35.6 °F 30.7 °F 32.0 °F 87% 29.99 in 10.0 mi NW 5.8 mph - N/A   Mostly Cloudy
9:15 PM 35.6 °F 32.8 °F 30.2 °F 81% 30.00 in 10.0 mi NNW 3.5 mph - N/A   Scattered Clouds
9:35 PM 35.6 °F 32.8 °F 30.2 °F 81% 30.00 in 10.0 mi North 3.5 mph - N/A   Scattered Clouds
9:55 PM 32.0 °F - 28.4 °F 87% 30.00 in 10.0 mi Calm Calm - N/A   Clear
10:15 PM 33.8 °F - 28.4 °F 81% 30.00 in 10.0 mi Calm Calm - N/A   Clear
10:35 PM 32.0 °F - 28.4 °F 87% 30.00 in 10.0 mi Calm Calm - N/A   Clear
10:55 PM 28.4 °F 23.3 °F 28.4 °F 100% 30.00 in 10.0 mi South 4.6 mph - N/A   Scattered Clouds
11:15 PM 30.2 °F 26.7 °F 28.4 °F 93% 30.01 in 10.0 mi South 3.5 mph - N/A   Scattered Clouds
11:35 PM 32.0 °F - 28.4 °F 87% 30.02 in 10.0 mi Calm Calm - N/A   Mostly Cloudy
11:55 PM 32.0 °F - 28.4 °F 87% 30.02 in 10.0 mi Calm Calm - N/A   Mostly Cloudy